Погода в Георгиевске

Погода в Георгиевске : погода сейчас, прогноз погоды и архив. Всё, что Вы хотите узнать о погоде в Георгиевске!

Поиск расширенной информации на нашем сайте:

Другие новости

Новости СМИ2

Главная страница сайта

Новости сайта

03.07.2017

Напоминаем, что на нашем специализированном сайте Метеоцентр.Азия вы можете получить высокодетализированные автоматические прогнозы погоды по пунктам России, СНГ и мира в авиационном формате (включающие направление и скорость ветра, видимость, явления погоды, количество и форму облачности, нижнюю и верхнюю границу облачности).


Погода в Георгиевске - сегодня

Время (UTC), дата Ветер
(°,м/с) 
Видим.   Явления Облачность Т
(°С)
Тd
(°С)
f(%) Тe
(°С)
Pmin
(гПа)
dP
(гПа)
Po
(мм)
O2
(г/м3)
Тmin Tmax R s Состояние
почвы
15 19.07.17 290 (З) 20000 м    10/8 1000 м кучево-дожд., средняя 
[Cb cap|Ac As]
+30.9 +17 43 +44  1005.8  0.3  730  261    +36.9       
18 19.07.17 290 (З) 20000 м    10/10 1000 м кучево-дожд. 
[Cb cap]
+28.4 +14.7 43 +37  1007.9  1.7  731  264           
21 19.07.17 130 (ЮВ) 20000 м    3/0 средняя 
[Ac trans]
+23.6 +13.3 52 +30  1007.5  -0.9  731  268           
00 20.07.17 280 (З) 20000 м    ясно 
+22 +13.3 58 +29  1007  -0.7  730  270           
03 20.07.17 280 (З) 20000 м    10/0 верхняя 
[Ci]
+22.9 +13.9 57 +30  1007.3  0.4  730  269  +21.8        сухая 
06 20.07.17 300 (СЗ) 20000 м    8/0 средняя, верхняя 
[Ac trans|Ci]
+27.8 +14.4 44 +36  1007.5  0.4  731  264           
09 20.07.17 310 (СЗ) 20000 м    8/0 верхняя 
[Cc]
+32.2 +14.2 34 +40  1006.1  -0.8  730  260           
12 20.07.17 260 (З) 20000 м    9/0 средняя, верхняя 
[Ac trans|Ci]
+34.9 +12.9 27 +41  1004.8  -1.1  730  258           
15 20.07.17 250 (З) 20000 м    10/10 1000 м кучево-дожд. 
[Cb cap]
+26.1 +17.4 59 +40  1005.7  730  264    +35.4       
18 20.07.17 290 (З) 20000 м    8/0 средняя 
[Ac trans]
+26.4 +14.3 47 +35  1007.7  1.9  731  266           
21 20.07.17 280 (З) 20000 м    3/0 средняя 
[Ac trans]
+23.2 +13.4 54 +30  1008.6  0.5  731  269           
00 21.07.17 280 (З) 20000 м    ясно 
+21.2 +14 63 +29  1009.5  0.6  732  271           
03 21.07.17 290 (З) 20000 м    ясно 
+20.1 +13.5 66 +27  1011.2  1.6  733  272  +20        сухая 
06 21.07.17 310 (СЗ) 20000 м    ясно 
+25.3 +14.2 50 +33  1011.9  1.2  734  268           
09 21.07.17 040 (СВ) 20000 м    3/3 1000 м 
[Cu hum]
+30.3 +13.6 36 +37  1011.3  734  264           
12 21.07.17 тихо ()   20000 м    4/4 1000 м 
[Cu hum]
+31.5 +13.4 33 +38  1010.8  -0.4  734  262           
15 21.07.17 тихо ()   20000 м    10/10 1000 м 
[Sc]
+30.1 +13.3 36 +37  1011.2  0.2  734  264    +32.5       
18 21.07.17 тихо ()   20000 м    4/0 средняя 
[Ac trans]
+25.9 +15.6 53 +36  1012.6  735  267           
21 21.07.17 тихо ()   20000 м    ясно 
+22.9 +14.9 61 +32  1013.2  0.2  735  270           
00 22.07.17 тихо ()   20000 м    3/0 средняя 
[Ac trans]
+20.5 +15.1 71 +30  1013.4  0.1  735  272           
03 22.07.17 тихо ()   20000 м    10/0 средняя 
[Ac und]
+22.1 +15.4 66 +32  1013.3  0.1  735  271  +20.4        сухая 
06 22.07.17 060 (СВ) 20000 м    10/10 1000 м 
[Sc]
+25.4 +15.7 55 +36  1012.9  735  268           
09 22.07.17 100 (В) 20000 м    6/3 600 м средняя 
[Cu hum|Ac trans]
+32.3 +14 33 +40  1010.5  -1.6  734  262           
12 22.07.17 120 (ЮВ) 20000 м    8/4 600 м средняя 
[Sc|Ac trans]
+34.2 +13.9 30 +42  1008.9  -1.4  732  260           
15 22.07.17 210 (ЮЗ) 20000 м    9/9 1000 м кучево-дожд. 
[Cb cap]
+32.1 +15 36 +41  1008.5  -0.5  732  261    +34.6       
Время (UTC), дата Ветер
(°,м/с) 
Видим.   Явления Облачность Т
(°С)
Тd
(°С)
f(%) Тe
(°С)
Pmin
(гПа)
dP
(гПа)
Po
(мм)
O2
(г/м3)
Тmin Tmax R s Состояние
почвы

Для получения пояснительной информации подведите курсор к названию столбца.

ПОГОДА в Георгиевске - архив

Всё, что Вы хотите узнать о погоде в Георгиевске - удобно и подробно!

Выберите нужную дату (начиная с 1 января 2015* года) и нажмите кнопку "Найти".
Будут отображены архивные сводки погоды по пункту Георгиевск, начиная с указанной даты.


Отображать данные в формате CSV (для использования в таблицах Excel)


Внимание! Наш архив погоды предназначен исключительно для личного некоммерческого использования в познавательных целях. Если Вам необходимы официальные справки о состоянии погоды (для производственных, юридических, коммерческих и т.п. целей), обращайтесь в органы Росгидромета.

*Примечание: данная дата относится к архиву по метеостанциям СССР (Россия, СНГ, Балтия).
Архив по метеостанциям Зарубежной Европы и Азии (кроме Китая) хранится 10 дней, по другим регионам земного шара (Китай, Африка, Америка, Австралия, Океания) - 1 день.

Георгиевск - район местоположения метеостанции


Название, широта, долгота, высота метеостанции:
Георгиевск 44.2°ш. 43.5°д. 302 м над ур. моря [Российская Федерация]

Дополнительная информация

В oтличие oт бoльшинства пoгoдных сайтoв мы публикуем пoдрoбную метеoинфoрмацию в детальнoм прoфессиoнальнoм фoрмате.

Характеристики температуры и влажнoсти вoздуха измеряются на высoте 2 м в тени вдали oт зданий и деревьев.
Скoрoсть ветра измеряется на высoте 10 м (на урoвне рoста челoвека скoрoсть ветра ниже в 1.5-2 раза). Если метеoстанция нахoдится в гoрoде или в лесу, тo скoрoсть ветра занижена на 2-4 м/с пo сравнению с oткрытым местoм. Скoрoсть ветра над акватoриями крупных рек и oзёр, а также на вершинах хoлмoв на 2-5 м/с выше, чем в oбычных услoвиях.
Атмoсфернoе давление в разных тoчках местнoсти мoжет значительнo oтличаться oт давления на метеoстанции, в зависимoсти oт услoвий рельефа (при пoдъёме на 10 м давление пoнижается примернo на 1 мм рт.ст.).